Theta_e
322 321 322 321 321 321 321 321 322 321 321 321 321 320 320 319 318 316 316 315 315 315 314 313 311 309 311 312 312 310 307 304 303 302 302 301 301 304 311 311 313 314 316 318 320 320 322 324 325 326 326 326 326 325 326 324 324 324 324 324 325 325 325 325 325 325 325 324 325 325 324 325 326 327 329 328 327 327 326 324 324 324 324 323 323
320 320 319 318 318 318 317 317 318 319 319 318 319 318 317 316 315 314 312 311 311 312 313 312 311 309 310 311 311 309 306 304 303 302 302 301 300 299 305 307 308 311 312 314 316 317 319 322 324 324 325 325 325 326 324 323 324 323 324 324 323 324 324 324 323 324 323 323 323 324 324 324 324 325 325 327 327 327 327 326 325 325 324 324 324
317 316 315 315 314 314 314 313 313 314 314 313 313 312 311 310 309 309 307 306 306 308 309 309 310 310 311 311 309 307 304 303 302 302 301 301 300 299 298 303 304 306 309 311 312 314 315 318 321 323 324 324 324 325 323 323 323 323 323 323 323 323 321 322 323 323 323 322 322 322 323 323 323 324 324 325 325 325 326 326 326 326 326 325 324
313 313 312 311 310 310 310 309 308 308 307 307 306 305 304 303 303 303 304 304 304 304 306 307 308 309 309 308 307 304 303 302 301 301 301 300 299 298 297 297 299 302 304 307 310 310 312 313 316 318 319 322 323 322 323 322 323 323 323 323 323 323 322 321 320 320 321 321 321 321 322 322 322 323 323 324 324 324 324 325 326 326 326 326 325
309 309 308 308 307 306 305 305 304 303 302 301 301 301 300 299 299 300 300 301 301 302 305 306 306 307 307 306 304 302 302 301 300 300 299 299 298 297 295 294 293 297 299 301 304 307 309 309 311 314 315 317 318 319 322 321 321 321 323 322 322 322 321 321 320 319 319 319 319 319 319 320 321 321 320 320 321 322 324 323 324 325 325 325 325
306 306 306 305 304 304 303 302 302 300 299 298 297 297 297 296 296 296 297 297 298 299 303 303 303 303 303 303 302 300 299 298 298 298 297 297 296 295 294 292 292 291 292 296 298 302 306 307 307 310 312 313 314 316 318 321 320 319 319 319 319 319 318 317 316 316 316 316 316 316 316 316 317 318 319 319 320 320 320 321 322 323 324 324 325
302 302 303 302 302 301 301 301 301 300 298 297 295 294 294 293 294 294 293 294 295 296 298 299 298 298 298 299 298 297 296 294 294 293 293 293 293 292 292 291 290 290 290 288 292 296 301 303 305 306 309 310 311 312 315 318 319 316 316 318 318 316 316 315 315 315 315 315 314 314 314 314 315 316 316 316 317 318 319 319 320 321 321 322 323
300 300 299 299 299 299 299 299 299 298 297 295 293 292 291 290 290 291 294 294 296 295 295 295 295 295 295 295 295 294 292 291 290 289 289 289 289 290 290 289 288 288 290 287 287 290 297 299 301 303 305 307 309 310 312 314 314 314 314 315 316 315 315 314 313 314 314 313 313 313 313 313 313 314 314 315 315 316 316 318 319 319 319 320 320
298 298 297 296 295 295 296 296 296 294 293 292 292 291 290 290 288 289 291 293 294 294 293 293 293 292 292 292 292 292 291 290 289 288 288 286 286 286 288 288 288 289 286 286 286 286 290 296 297 298 299 304 307 308 309 311 313 313 314 314 314 314 313 313 313 313 312 311 312 312 312 312 312 313 313 313 313 314 315 315 316 317 318 319 319
296 296 295 294 293 292 292 292 291 291 290 290 289 289 288 289 288 288 289 292 293 293 291 291 292 291 290 290 290 290 290 289 288 288 286 285 285 284 285 286 286 285 284 284 285 285 285 289 292 293 294 300 304 306 307 308 310 312 313 313 314 313 312 311 311 311 311 312 311 311 311 311 311 312 312 312 313 313 314 314 315 315 316 316 317
294 294 293 292 291 290 289 289 289 289 288 288 287 287 287 287 288 287 287 287 288 289 291 291 290 290 289 288 287 287 288 288 287 286 284 284 285 286 285 284 284 284 283 283 284 284 284 284 284 284 285 295 300 303 304 306 306 309 310 311 312 314 313 312 311 311 310 310 310 311 311 311 312 312 312 312 312 312 312 313 314 314 315 315 316
292 291 291 290 289 289 288 288 288 287 287 286 286 285 286 286 286 287 287 287 286 285 287 290 289 289 289 288 287 286 286 286 285 285 284 283 283 283 283 283 283 283 283 282 283 283 283 283 285 284 284 288 295 296 299 300 301 305 307 309 311 311 310 310 310 310 309 309 309 309 310 310 310 311 311 312 312 312 312 312 312 313 314 315 314
289 289 289 289 288 287 287 286 287 287 286 285 285 285 285 285 285 286 286 286 284 284 284 286 290 288 288 287 287 286 287 285 284 283 283 282 282 282 282 282 282 282 281 282 282 282 282 283 283 283 284 284 286 291 294 295 296 301 304 305 307 309 309 310 310 309 308 308 308 309 309 309 310 310 311 311 311 311 312 312 312 312 312 312 313
288 288 287 287 286 286 286 285 286 286 286 285 285 286 284 284 284 284 283 283 282 282 283 285 287 285 285 285 287 285 285 284 284 283 282 282 282 281 281 281 281 281 281 281 281 281 282 282 282 282 283 284 284 284 286 287 289 296 300 303 305 307 308 308 308 307 306 306 307 308 307 308 309 309 310 310 311 311 311 311 312 312 312 312 312
286 287 286 286 285 285 285 284 284 285 284 284 283 283 283 282 282 283 282 282 282 283 282 283 284 282 283 284 283 282 287 280 281 282 281 281 281 281 281 280 280 281 281 281 280 280 281 281 282 282 283 283 284 284 284 286 287 291 295 298 300 304 306 307 307 307 307 306 306 306 307 308 308 309 309 309 310 310 310 310 311 311 311 312 312
285 285 285 285 285 284 284 284 284 284 284 283 282 282 282 282 282 283 282 281 279 281 282 282 281 283 286 283 282 279 277 276 277 279 279 279 280 280 281 280 280 281 280 280 280 280 280 281 281 281 282 283 283 283 283 283 286 288 290 293 296 300 303 306 306 306 306 306 305 304 305 306 307 307 308 308 308 309 309 309 309 310 310 311 311
284 284 285 284 284 284 284 283 283 283 283 283 282 282 281 281 281 281 281 281 279 278 281 281 280 282 282 278 277 276 276 275 275 278 278 278 279 279 281 280 279 280 279 280 280 280 280 280 280 280 281 282 282 282 281 282 282 285 286 290 294 296 299 303 304 304 305 305 304 304 304 305 306 306 307 307 307 308 308 308 308 309 309 310 310
284 284 284 284 283 283 283 283 282 282 283 282 282 281 281 281 281 280 280 280 280 279 278 281 281 281 280 279 278 277 276 276 274 276 276 277 277 278 278 279 278 278 279 279 279 279 281 280 280 280 280 281 281 281 280 281 283 282 285 289 295 295 295 297 301 302 303 303 303 304 306 305 305 305 306 306 306 306 307 307 307 308 308 309 310
283 283 283 283 283 283 282 282 282 282 283 282 281 281 281 281 281 281 280 282 279 279 279 279 279 280 280 280 280 278 275 274 276 274 273 274 276 277 276 278 277 277 278 278 278 278 279 280 279 279 279 280 280 280 279 280 283 284 289 292 295 295 295 295 295 298 300 301 303 304 305 305 305 305 305 305 305 305 306 306 307 307 307 308 309
283 282 282 283 282 282 282 282 282 282 282 281 281 280 281 281 281 280 280 279 279 279 277 276 276 278 279 279 279 278 277 277 275 275 275 273 274 275 275 277 277 276 277 277 278 278 278 278 279 278 278 279 279 279 279 279 279 280 283 291 293 294 295 294 294 294 296 298 301 302 304 304 304 304 304 303 304 304 305 305 306 306 307 307 307
281 282 281 282 282 282 281 281 281 281 281 281 280 280 280 279 279 280 280 279 280 278 278 276 277 277 277 277 277 276 276 276 275 276 275 273 272 273 274 275 275 275 276 277 277 277 278 277 279 278 280 278 278 278 278 278 278 279 285 289 292 294 294 294 293 293 293 295 297 299 301 302 302 303 303 303 303 304 304 304 305 306 306 307 307
281 280 281 281 281 281 281 281 280 281 281 280 280 280 280 279 279 279 279 279 279 279 278 277 277 276 276 277 276 276 275 276 275 274 274 274 274 273 273 273 273 275 276 277 278 277 276 277 276 276 277 277 277 277 278 277 278 280 283 287 289 291 292 292 292 292 293 294 294 295 297 299 300 301 302 302 302 303 303 304 304 305 305 305 306
280 280 280 280 280 281 280 280 280 281 280 279 279 279 279 279 279 278 278 279 278 278 279 278 277 277 277 276 276 276 276 275 274 275 273 273 272 272 273 274 274 273 275 276 278 276 276 276 276 276 276 277 277 277 277 277 279 281 284 285 286 287 288 290 291 291 293 293 294 294 294 295 296 297 298 300 301 302 303 303 303 303 304 304 305
279 279 279 279 280 280 280 279 279 279 279 279 279 278 278 278 278 278 278 277 278 278 277 277 277 277 276 276 276 277 277 276 276 276 275 275 274 272 273 273 273 274 275 276 275 275 276 275 276 276 275 276 276 277 277 277 277 282 281 282 284 286 288 289 291 291 292 292 292 293 293 293 293 294 295 298 299 301 302 302 302 302 303 303 303
278 279 278 279 280 279 279 279 279 279 279 279 278 278 278 278 278 277 277 277 277 277 277 276 276 276 276 276 276 277 276 276 277 276 276 275 275 272 273 274 272 273 273 274 274 275 275 275 276 275 275 276 277 276 276 276 276 280 282 280 282 283 284 286 288 290 291 291 291 292 292 292 292 293 294 296 297 299 300 300 300 301 301 302 301
279 279 279 279 279 279 279 279 279 279 279 278 278 278 278 278 278 278 277 277 277 277 276 276 276 276 276 276 276 276 275 276 275 276 275 275 274 273 273 273 273 272 274 273 273 275 273 275 275 275 275 275 275 275 275 276 276 280 282 278 278 281 282 284 287 289 290 290 290 290 290 290 291 291 292 295 295 296 297 298 299 300 299 300 301
279 279 279 279 279 278 278 279 279 279 279 279 279 278 278 278 277 277 277 277 277 277 276 276 277 276 275 276 276 276 275 275 276 276 276 276 275 274 273 272 271 272 271 272 272 273 273 273 274 274 275 276 275 274 275 275 277 280 280 276 275 279 280 284 287 289 289 289 289 289 289 289 289 291 291 292 293 294 295 296 297 298 298 298 297
279 279 279 279 279 279 278 278 278 278 278 278 277 277 277 277 277 277 277 278 276 276 276 276 275 275 275 275 275 275 275 275 275 275 275 276 276 275 274 273 272 269 271 270 272 271 273 272 273 274 273 274 275 274 277 276 274 279 278 275 274 275 279 283 287 288 288 287 288 288 288 288 289 289 290 290 290 291 292 292 293 293 292 292 293
279 279 279 278 278 278 278 278 278 278 278 277 277 276 276 276 276 276 276 276 276 275 275 275 275 275 274 274 274 274 274 275 274 275 275 274 275 274 274 273 274 271 268 268 270 270 271 274 273 273 274 274 274 274 274 273 276 277 275 275 274 274 278 283 285 286 286 287 287 287 287 288 288 288 289 289 289 290 290 290 290 290 291 291 292
280 280 278 278 278 279 278 277 277 277 277 277 276 276 276 275 275 275 275 275 275 275 276 275 274 274 275 274 274 274 274 273 274 274 274 273 273 274 274 274 274 271 271 270 270 272 271 273 273 272 273 273 274 274 274 273 277 277 275 274 274 274 280 281 282 283 284 286 286 286 287 287 288 288 288 288 289 289 290 290 290 290 291 292 293
279 278 278 278 277 277 277 277 277 276 276 276 276 275 275 275 275 275 274 274 274 274 275 275 274 274 273 273 273 273 273 273 273 273 273 273 274 274 273 274 274 272 272 271 267 271 272 270 272 273 273 272 273 273 274 274 275 276 274 273 273 277 279 278 279 281 283 284 284 285 287 287 287 288 288 288 289 289 289 289 289 289 290 290 291
279 278 278 277 277 277 276 277 276 276 276 275 275 275 275 275 274 274 274 274 274 274 274 274 274 274 273 273 273 273 273 272 272 273 272 273 273 273 273 272 272 272 272 271 269 270 273 272 272 272 272 272 273 272 272 273 275 276 273 274 274 277 275 274 278 280 281 282 283 285 286 287 287 288 287 287 288 288 288 288 289 289 289 289 290
278 278 277 277 277 276 276 276 276 276 275 275 275 274 274 274 273 273 273 273 273 273 273 273 273 273 272 272 272 272 272 272 272 272 272 272 272 273 272 272 272 271 271 270 268 269 271 272 272 272 272 272 271 272 272 272 272 273 275 273 274 273 274 274 274 277 280 281 283 284 285 286 287 287 287 287 287 287 288 288 288 288 288 289 289
278 278 277 277 276 276 276 276 275 275 275 274 274 274 274 273 273 273 273 273 273 272 272 272 272 273 272 272 272 272 272 271 271 271 271 271 271 271 271 271 270 271 271 270 269 269 268 271 271 272 271 272 271 272 271 271 272 273 272 273 274 274 274 274 274 274 279 281 283 284 285 286 287 287 287 286 287 288 288 288 287 287 288 288 288
277 277 277 276 276 277 276 275 275 274 274 274 274 273 273 273 273 273 273 273 272 272 271 271 272 272 271 271 271 271 271 271 271 271 271 271 271 270 270 271 270 270 271 271 269 267 268 269 271 270 271 271 271 271 272 273 273 273 272 273 273 274 275 275 274 275 279 281 283 284 285 285 285 286 286 286 286 286 286 287 287 287 287 287 287
277 277 277 277 277 277 276 275 274 274 274 275 274 273 273 273 273 274 273 272 272 271 271 271 271 271 270 270 270 270 270 269 269 270 270 270 270 270 270 270 270 270 270 270 271 270 268 267 269 270 271 271 271 272 273 273 273 273 273 273 274 274 274 275 274 274 277 282 283 283 284 284 284 285 285 285 285 286 286 286 286 286 286 286 285
277 277 277 277 277 276 276 275 274 274 274 274 274 273 273 273 273 273 272 271 271 271 271 271 273 270 270 270 270 269 269 269 268 269 269 269 269 270 269 270 270 271 271 271 270 270 269 267 268 270 271 271 272 272 273 272 273 273 273 273 274 274 274 275 276 276 279 281 281 282 282 283 283 284 285 285 285 285 285 285 285 285 285 285 284
277 277 277 277 277 276 275 275 275 275 274 274 274 274 273 272 271 272 272 272 271 271 271 271 271 270 270 270 270 270 269 269 269 269 269 268 268 268 269 269 269 269 270 270 270 270 269 268 268 269 270 270 271 272 273 273 272 272 273 274 274 274 274 274 275 276 276 276 276 277 279 280 281 283 284 284 284 285 285 285 284 284 284 283 283
277 277 277 276 276 276 275 274 274 274 274 274 274 273 272 272 272 273 272 271 271 271 270 270 270 270 270 270 270 270 270 269 269 269 268 268 269 268 269 269 269 269 269 269 269 270 270 269 269 270 270 272 273 272 274 274 273 273 272 272 272 274 274 273 273 275 276 276 278 280 279 279 280 278 280 281 282 282 283 283 283 283 282 282 282
277 277 276 276 276 276 275 274 274 274 274 274 273 272 272 273 273 273 272 271 271 270 270 270 270 270 270 270 270 270 270 270 270 269 269 269 269 269 270 269 269 269 268 268 268 268 268 268 269 269 271 271 273 274 274 273 272 273 274 272 270 271 272 274 274 273 274 274 273 274 276 276 276 277 278 278 279 280 281 281 280 280 280 281 282
277 277 277 276 275 275 275 275 274 274 274 273 273 272 272 273 273 272 272 271 271 271 270 270 270 270 270 270 270 270 271 273 275 274 273 273 270 268 269 269 269 268 266 265 265 267 267 269 270 272 272 272 272 272 271 271 271 271 272 272 271 272 273 272 272 273 273 272 272 272 272 273 272 272 273 272 273 276 277 279 279 279 279 281 283
277 276 276 276 275 275 274 274 274 273 273 273 275 277 276 273 272 272 272 271 271 271 270 270 270 270 270 270 270 274 275 275 276 277 278 278 277 273 270 269 268 267 263 262 264 266 269 269 270 271 271 271 271 271 271 272 273 272 272 272 271 271 271 270 270 272 273 272 270 269 270 272 272 271 272 272 274 275 275 275 274 277 280 282 282
276 275 275 275 275 275 274 274 273 273 273 273 277 279 280 279 274 272 272 271 270 270 270 270 269 270 270 270 269 272 274 275 275 277 278 278 277 277 278 277 275 270 266 267 268 270 270 270 271 272 272 270 271 272 272 272 271 272 272 272 270 269 268 267 265 269 273 271 269 268 268 271 272 270 272 273 274 274 274 275 279 280 280 282 282
275 275 275 275 274 274 274 274 273 273 273 276 279 280 281 281 278 272 271 270 270 270 270 270 269 269 269 269 269 269 270 270 269 270 273 276 276 277 277 277 277 278 277 273 271 271 272 272 272 272 271 271 271 272 271 270 271 272 271 270 269 268 267 266 267 266 270 270 268 267 267 271 272 272 271 272 273 274 274 278 280 280 281 281 281
275 274 275 275 274 274 273 273 273 273 273 277 279 281 282 282 281 275 270 270 270 269 270 270 269 269 269 269 269 270 269 273 272 269 268 268 273 275 276 276 277 277 278 279 279 277 276 273 272 271 272 272 270 270 272 272 273 270 269 268 268 268 268 267 267 267 268 269 268 267 267 269 270 269 269 271 272 272 272 275 278 279 280 280 281
275 275 274 274 274 273 273 273 273 273 272 276 280 281 282 283 283 279 269 270 270 269 270 270 270 270 269 269 268 268 269 269 269 269 269 268 267 267 268 268 268 271 276 277 278 278 277 274 272 271 273 272 271 272 274 273 271 269 268 267 268 267 267 266 267 267 268 270 268 266 264 266 269 269 267 269 270 270 271 274 278 279 279 280 280
275 274 274 274 274 274 273 273 273 272 272 276 280 282 282 283 283 282 272 272 271 271 271 271 271 270 269 269 269 269 268 268 268 269 267 267 265 265 264 265 267 269 271 273 274 274 275 275 274 274 273 273 273 274 273 273 272 271 270 269 269 267 266 267 266 267 267 269 267 265 261 265 268 266 267 268 269 270 271 274 276 278 279 279 280
275 275 275 275 274 274 273 273 272 272 272 277 279 281 283 283 284 280 274 273 272 272 271 272 271 271 270 270 269 268 268 268 271 274 274 269 266 265 265 267 269 271 272 275 277 277 276 276 275 274 274 275 276 275 274 273 272 271 271 269 267 265 264 262 261 263 263 266 267 265 263 264 267 266 266 269 269 268 269 270 274 277 278 279 279
275 275 274 274 274 274 273 272 272 272 272 276 279 281 282 283 283 278 273 273 273 272 272 272 272 271 271 270 270 269 268 267 271 275 276 276 272 270 270 270 271 272 273 275 278 279 278 278 278 278 278 277 276 276 275 275 272 272 268 264 261 261 261 260 261 261 262 265 266 266 265 263 266 266 266 267 267 267 268 269 270 274 277 278 278
275 275 275 274 274 274 273 272 272 272 272 274 279 281 282 283 282 277 274 273 273 273 272 272 272 271 271 272 271 269 268 268 272 275 276 275 273 273 273 272 272 272 273 274 274 274 277 278 277 276 274 273 273 272 272 272 272 272 264 260 260 261 261 261 260 261 263 264 265 268 264 264 266 267 265 266 266 267 267 268 270 271 274 275 276
276 276 275 275 274 273 272 272 273 272 272 273 277 280 282 282 282 276 273 272 272 272 272 271 271 270 270 271 272 272 270 270 274 275 276 276 273 273 273 273 272 272 273 274 273 272 272 270 269 269 269 269 266 264 265 270 271 270 267 264 262 261 261 262 262 262 261 261 265 268 264 264 265 266 265 263 262 265 267 268 268 269 270 270 271
Wind_Speed
6 6 6 6 5 6 6 6 6 5 5 5 5 6 5 5 6 6 6 7 6 5 6 6 6 5 6 7 7 8 9 8 8 8 8 8 10 16 21 22 22 23 23 23 22 22 22 22 22 22 22 21 20 20 20 21 20 21 21 21 20 22 23 23 23 23 23 23 23 23 23 23 23 22 20 18 18 18 15 13 14 14 14 15 16
6 5 8 6 6 6 7 6 7 6 5 6 5 6 6 5 6 7 7 6 6 5 6 6 6 5 6 6 8 7 8 8 8 8 8 8 9 12 22 21 23 23 23 23 24 23 23 22 22 23 23 22 22 21 22 20 20 20 21 21 20 21 22 23 23 22 22 23 23 23 23 23 24 24 22 22 21 19 19 18 15 14 13 14 15
6 7 7 6 6 7 6 6 7 6 6 7 6 7 7 7 6 6 6 6 6 5 5 6 5 6 7 8 7 8 9 8 8 8 9 8 8 8 11 20 23 23 24 24 24 24 24 23 23 23 23 23 23 22 21 20 20 20 20 20 20 19 20 21 22 22 23 23 23 23 24 24 23 23 24 23 22 22 20 18 19 20 18 16 15
7 7 7 7 6 7 6 7 6 6 6 6 6 6 7 7 7 6 5 5 6 6 5 6 7 7 8 9 7 9 8 8 8 9 9 8 9 8 9 10 18 22 23 24 24 24 24 24 24 24 23 23 23 23 22 21 21 20 20 21 21 21 20 20 21 21 21 22 23 24 24 24 24 24 24 24 24 23 23 22 20 18 19 21 19
6 7 8 8 7 7 7 7 6 5 5 7 7 6 6 7 7 5 6 6 7 6 5 7 8 7 8 8 8 9 8 8 8 9 10 9 8 8 8 9 9 14 19 22 23 24 24 24 24 24 24 24 24 24 22 22 23 23 23 23 24 24 25 23 22 23 22 23 23 23 23 23 23 24 24 23 24 25 23 23 23 22 20 19 19
6 7 7 8 7 7 7 6 5 6 6 5 7 5 6 7 5 7 6 7 7 5 6 8 7 7 8 7 8 8 8 9 9 9 9 9 8 9 8 8 9 8 9 17 22 23 24 24 25 24 25 25 25 25 24 23 23 23 23 23 24 23 23 23 23 24 24 23 24 24 24 24 24 25 25 25 24 23 23 22 22 23 23 22 20
5 7 7 7 8 7 7 6 5 6 7 6 6 6 6 7 4 7 6 7 7 6 7 8 9 9 7 7 8 8 9 9 9 9 9 8 8 8 9 8 8 8 9 9 12 20 22 24 24 25 25 25 25 25 24 24 23 24 23 24 22 22 22 22 22 22 24 24 24 23 24 25 25 25 25 25 25 24 24 22 22 22 22 22 23
6 6 9 6 7 8 6 6 6 7 7 6 6 7 6 7 6 4 8 7 8 8 7 9 9 9 7 8 8 8 9 9 9 8 7 8 8 8 8 8 8 8 9 9 9 11 21 21 23 24 24 25 25 25 25 24 24 23 23 23 24 24 23 22 21 20 22 24 25 25 24 24 25 25 26 26 26 25 25 24 24 23 22 22 22
7 7 9 8 7 7 6 6 5 7 7 6 8 5 6 8 7 6 6 8 9 9 8 8 9 8 8 9 8 9 9 8 8 7 7 10 8 8 8 8 8 9 9 9 9 9 14 21 21 22 23 24 24 24 25 24 24 24 24 24 23 23 24 25 24 23 23 22 24 26 26 27 26 26 26 26 27 26 26 25 24 24 24 23 23
7 8 8 7 7 7 6 6 6 7 7 7 7 5 6 7 10 7 6 8 8 8 8 8 7 8 9 9 8 8 7 8 7 8 9 9 8 8 7 7 8 9 8 8 8 9 9 14 19 19 21 23 24 24 25 25 25 24 24 24 24 24 23 24 25 25 25 25 25 25 26 26 26 26 26 27 27 27 27 26 25 24 24 24 25
8 7 9 7 7 7 7 5 5 7 8 8 7 7 7 7 10 9 8 8 7 6 6 8 8 8 8 8 7 8 7 7 7 8 8 7 7 6 6 8 7 8 8 8 8 8 9 9 9 9 11 22 22 24 25 25 25 25 25 25 25 25 25 25 25 25 25 25 25 24 25 25 25 25 26 26 27 27 27 27 27 27 25 24 23
7 6 8 7 7 6 7 5 5 6 8 9 7 7 7 10 8 8 9 8 8 6 5 8 9 9 8 7 7 6 8 7 8 8 7 8 7 7 8 6 8 8 8 7 7 8 9 8 8 8 8 13 21 21 22 24 25 25 25 25 25 25 25 25 25 25 25 25 25 25 25 25 26 26 26 26 26 26 26 27 27 27 28 28 27
6 6 8 8 7 7 7 6 5 8 8 8 5 7 6 6 6 6 7 8 7 6 3 2 9 7 6 7 7 5 6 8 9 8 8 6 6 8 6 8 8 8 7 6 8 8 8 8 8 8 8 8 10 17 21 22 23 25 26 26 25 25 25 25 25 25 25 26 26 26 26 26 26 26 26 26 26 26 26 25 25 26 27 28 28
6 6 7 7 8 7 7 6 6 8 8 6 6 6 5 5 5 9 5 7 5 4 5 1 3 5 6 2 2 3 4 8 8 7 6 6 6 7 7 7 8 7 7 7 8 8 8 7 7 8 8 8 8 8 10 11 15 23 24 25 26 25 25 25 25 25 25 25 25 26 26 26 26 26 26 26 26 26 26 26 26 26 26 26 27
6 6 7 6 8 8 7 6 5 5 8 8 7 8 6 6 5 8 7 4 5 6 7 3 3 2 2 4 0 1 1 4 3 5 6 5 5 8 6 7 7 6 6 7 7 7 7 7 8 8 8 9 8 8 8 9 14 21 22 24 25 25 25 25 25 26 26 26 26 26 26 26 26 26 27 26 26 26 27 27 27 27 26 26 25
6 5 7 7 6 8 6 6 7 5 8 8 7 6 6 5 5 4 6 6 4 7 6 6 4 3 1 0 1 1 1 2 2 2 3 3 6 6 7 7 7 7 6 8 7 6 6 6 8 7 8 8 7 8 8 9 16 18 20 21 25 25 25 25 25 26 26 26 26 27 26 27 27 27 27 27 27 27 27 27 27 28 27 27 26
5 6 7 7 6 6 7 7 8 6 7 8 7 6 4 4 4 6 5 8 5 3 7 6 7 2 5 3 1 2 1 1 1 1 4 3 6 7 8 9 8 7 7 8 7 7 6 7 7 7 7 7 8 8 8 10 10 9 12 16 22 24 25 25 25 26 26 27 27 26 27 27 27 28 28 28 28 28 28 28 28 27 27 27 27
6 6 6 6 7 7 7 8 7 6 6 7 6 6 6 7 5 5 7 5 8 6 5 5 7 9 7 3 0 3 2 1 2 0 3 1 3 4 5 7 5 5 6 7 8 7 6 7 7 7 7 7 7 8 8 9 9 9 9 13 24 23 23 24 25 25 26 27 27 27 27 27 27 28 28 28 28 28 28 28 28 28 27 27 27
6 5 6 6 7 6 6 6 6 6 5 7 8 7 6 5 4 7 6 4 6 8 7 4 6 8 7 6 8 5 3 3 1 2 2 2 4 4 4 5 5 4 5 5 5 6 6 5 6 6 6 6 7 7 7 8 11 13 18 22 23 23 23 24 23 24 25 26 26 27 27 28 28 28 28 29 28 29 29 29 28 28 28 28 28
7 6 6 6 6 6 5 6 7 6 6 7 7 6 7 6 7 7 6 6 5 8 4 1 5 1 3 6 7 7 6 7 3 2 2 1 3 4 1 5 5 2 3 4 5 5 5 5 5 5 5 5 5 5 6 7 7 8 9 21 22 23 23 22 22 22 23 25 26 26 27 27 28 28 29 29 29 28 28 28 28 29 28 28 28
6 6 5 5 4 6 6 7 7 6 6 6 6 6 7 7 7 7 7 6 5 3 6 4 4 5 4 4 5 5 5 4 3 3 2 1 2 1 5 6 2 1 3 2 3 3 4 4 3 3 4 5 5 5 6 7 8 8 11 20 22 23 24 23 23 22 22 23 25 25 26 27 28 28 29 29 29 29 29 28 28 28 28 28 28
5 4 5 4 5 5 6 7 7 6 6 7 7 8 7 8 7 7 6 8 5 6 7 5 5 3 2 4 3 1 3 4 4 4 3 3 1 3 2 4 7 7 4 7 6 3 3 3 3 4 5 5 6 6 6 7 7 7 12 20 21 22 23 23 23 23 23 23 24 25 26 26 27 27 28 29 29 29 29 29 29 29 29 29 29
5 5 4 4 5 4 6 6 5 5 6 7 7 7 7 7 7 7 7 7 7 7 7 5 5 6 5 5 4 3 3 2 1 2 2 1 3 2 2 2 2 5 6 5 6 4 3 1 3 4 4 5 4 5 6 7 8 12 19 19 21 21 22 22 22 22 23 23 24 24 25 26 26 27 28 27 27 28 29 29 30 30 29 29 30
4 5 5 4 5 5 5 5 5 5 7 7 7 7 7 6 6 7 6 6 5 7 6 7 6 6 5 4 5 4 5 6 3 4 5 2 3 1 2 3 2 4 6 5 3 2 4 4 3 4 3 3 3 4 5 5 7 17 14 17 20 22 22 22 23 22 23 23 24 24 24 25 25 26 27 27 28 28 28 29 30 29 29 29 30
5 6 4 5 6 7 6 6 5 5 7 8 7 7 7 6 7 6 6 6 5 5 7 5 5 6 6 3 5 5 5 2 4 5 3 4 4 2 2 2 2 4 3 1 2 4 0 3 4 3 4 5 5 6 6 7 7 13 17 10 19 19 21 22 22 23 23 23 24 24 25 25 25 25 26 27 28 28 28 27 28 29 29 29 30
8 7 6 5 5 5 5 4 4 6 7 8 7 6 6 7 6 7 7 5 6 6 7 6 6 5 4 6 4 4 3 3 3 4 4 5 3 2 1 2 2 4 3 2 1 2 3 2 3 3 5 6 6 7 8 9 9 16 20 12 13 19 21 22 22 23 24 24 24 24 24 25 25 25 25 26 27 27 28 28 28 28 29 29 29
7 6 5 6 6 5 4 5 6 7 8 8 7 6 6 6 6 7 6 5 6 6 6 6 6 5 4 5 5 4 4 3 4 3 3 3 5 4 3 4 5 1 2 2 2 2 3 4 2 3 4 5 6 7 7 7 10 17 17 10 9 17 20 22 22 23 23 23 24 24 24 24 25 25 25 26 26 26 27 28 28 28 28 28 29
5 6 5 6 7 6 5 5 6 7 7 8 7 6 6 7 6 6 6 3 6 6 5 6 6 5 5 3 5 3 2 3 3 3 3 3 4 4 4 3 1 5 3 3 2 2 1 1 1 2 3 3 5 6 8 9 7 16 13 8 8 10 18 21 23 22 22 23 23 24 25 25 25 25 25 25 26 26 26 27 27 27 27 27 27
7 5 7 5 6 6 7 6 6 7 8 7 7 6 5 6 6 6 6 4 6 6 5 6 4 4 4 4 5 4 3 2 2 3 3 3 3 2 3 4 4 1 2 4 3 1 3 0 1 2 3 6 6 6 6 6 9 12 7 8 9 9 15 22 23 22 22 23 23 24 24 24 25 26 26 26 27 27 27 27 27 27 27 28 28
6 6 6 6 5 5 6 7 7 7 8 7 7 6 6 6 5 6 5 5 6 4 4 5 4 4 4 3 3 4 2 3 3 2 2 3 4 3 3 1 3 3 3 1 6 2 3 2 1 3 3 6 6 6 5 6 11 12 7 8 8 9 19 22 22 22 23 24 24 24 25 25 25 26 27 28 28 28 27 27 27 27 27 28 28
7 7 7 6 6 5 5 7 7 8 7 7 7 6 6 7 5 6 4 5 6 5 3 5 3 5 4 4 3 3 2 3 2 2 2 2 3 4 3 3 2 2 3 2 2 5 4 4 2 1 3 3 6 6 5 5 8 11 8 7 7 14 20 16 21 22 23 24 24 25 25 26 26 27 27 28 29 29 29 28 28 28 27 27 27
7 7 7 7 7 7 5 7 8 7 8 6 7 7 6 6 6 6 5 5 6 5 3 3 3 4 4 4 3 3 2 3 3 3 2 2 2 4 3 4 3 2 2 3 4 10 1 2 3 3 3 6 6 8 7 5 6 11 7 7 9 14 10 9 16 21 22 24 25 25 25 26 27 28 29 29 29 29 29 28 28 27 27 27 27
9 9 8 8 7 6 7 7 8 8 8 7 6 6 7 7 6 6 5 6 6 4 4 3 2 3 3 4 3 2 2 3 3 3 2 2 3 3 3 3 3 1 2 1 3 9 6 1 1 4 5 5 7 4 9 8 7 7 7 7 8 8 9 9 9 16 20 23 24 25 26 27 28 28 28 29 29 29 29 28 28 27 26 27 27
9 9 9 7 6 7 7 7 7 7 7 7 6 6 7 7 6 5 6 6 6 5 4 3 3 3 3 4 3 2 1 3 2 2 2 2 2 3 1 3 1 1 1 3 4 3 10 3 6 3 3 4 9 4 7 11 11 9 10 7 7 7 8 9 9 9 18 22 25 26 27 27 28 29 29 28 28 28 28 27 27 27 27 27 28
7 7 8 8 8 7 7 7 7 6 6 6 5 5 6 7 7 6 6 6 6 6 5 5 4 3 3 3 3 3 2 2 2 1 2 2 2 3 1 0 1 1 1 1 1 4 7 9 3 7 6 6 6 10 9 7 8 8 10 10 9 8 8 8 9 8 15 22 25 27 28 28 28 28 29 28 27 27 28 28 28 28 28 28 29
8 6 6 7 7 8 8 8 7 7 7 6 5 5 6 6 7 7 6 5 5 5 5 5 4 4 4 4 3 3 2 3 2 2 2 3 3 2 2 1 1 2 2 1 3 3 4 9 6 6 9 9 8 6 8 8 8 8 8 10 9 9 8 7 7 8 12 22 26 27 27 27 27 27 28 28 27 27 28 29 29 29 29 29 28
6 6 6 6 7 8 9 9 8 8 8 8 8 7 5 5 6 6 5 4 4 4 5 4 5 4 4 4 4 3 3 4 3 3 3 3 3 2 2 2 2 3 2 2 3 3 6 8 11 6 6 8 8 8 7 10 11 9 7 8 8 8 9 8 6 7 15 24 23 23 24 25 26 27 27 27 27 28 29 30 30 30 29 28 28
7 7 7 7 7 8 7 8 8 8 8 8 8 8 7 5 5 5 5 5 4 4 4 4 4 4 4 4 4 4 4 5 4 3 3 4 3 3 3 2 3 2 2 3 3 4 5 7 7 11 7 8 11 8 5 7 10 12 12 10 6 5 8 10 9 9 9 9 9 10 15 18 22 27 28 28 30 31 31 30 29 28 27 27 27
8 8 7 7 6 7 7 7 8 9 8 7 7 7 6 6 6 6 6 5 4 4 4 4 4 4 4 4 5 5 5 5 5 4 4 3 4 4 4 4 3 3 3 3 3 4 5 7 7 6 9 9 10 13 11 8 7 7 10 13 15 10 7 8 11 11 11 11 13 19 19 20 24 21 25 29 29 30 29 27 26 26 25 26 26
9 9 9 9 7 7 7 7 7 7 7 7 7 7 6 6 7 6 6 6 5 4 4 4 4 4 4 5 5 5 6 5 5 5 5 5 4 4 4 3 3 3 4 3 3 4 5 6 7 8 7 8 8 8 7 8 9 8 7 10 14 15 16 12 10 12 13 13 12 11 12 15 16 19 23 23 26 26 25 23 24 25 26 25 25
7 7 7 7 8 7 7 7 7 7 7 7 7 7 7 6 6 6 7 7 6 6 4 4 4 5 4 5 4 4 5 7 10 8 8 7 6 4 4 4 4 5 3 3 3 3 4 6 8 7 8 10 9 10 11 9 10 12 12 12 13 13 12 14 12 9 10 12 12 11 11 11 13 11 11 12 13 19 17 22 19 23 24 24 24
6 6 6 6 7 8 9 7 7 6 6 5 7 12 10 8 7 6 6 6 6 5 5 5 5 5 5 5 5 8 10 10 10 11 11 11 10 7 6 5 5 5 4 4 4 4 6 6 6 7 7 8 8 8 9 10 11 12 13 12 13 13 14 14 13 6 8 10 12 15 13 10 11 12 11 12 11 12 9 10 11 17 21 25 27
7 7 6 8 7 7 8 8 8 7 6 5 11 13 14 13 8 7 7 6 5 5 5 7 7 7 5 5 4 6 7 8 7 10 9 9 8 10 10 10 8 7 5 5 5 6 6 6 6 5 7 12 11 9 9 10 10 10 11 11 12 13 12 13 15 14 4 10 13 14 14 11 10 11 11 12 11 11 11 11 20 23 26 29 29
6 5 7 7 6 6 6 6 7 7 6 8 13 14 15 15 12 8 5 5 5 6 6 7 6 5 6 5 4 4 4 4 3 3 5 7 8 9 10 11 11 12 11 8 7 6 6 6 6 6 8 10 10 6 8 9 10 10 9 10 11 11 12 12 11 13 12 12 14 14 16 11 10 12 13 12 12 12 14 21 26 28 28 26 26
6 7 8 8 7 6 7 8 8 7 6 10 14 15 15 16 16 10 5 5 6 6 6 6 6 6 5 5 4 4 3 8 5 3 3 3 7 8 9 11 11 12 12 14 14 8 5 6 6 7 8 8 7 7 8 10 10 10 11 11 10 11 11 12 12 13 15 13 13 13 14 13 10 11 13 13 13 13 15 19 26 25 25 27 28
9 8 7 8 7 8 8 9 8 7 7 9 15 16 16 17 16 12 5 6 5 5 6 6 5 6 6 5 5 5 4 4 3 4 3 3 3 3 4 4 4 7 11 13 13 15 12 7 7 8 6 5 9 10 8 8 10 10 10 11 11 10 9 9 14 14 13 10 11 13 14 11 9 12 13 13 12 13 12 19 26 26 27 28 27
11 11 10 10 9 8 8 7 7 7 7 12 15 16 17 17 17 12 6 6 6 5 6 6 7 6 5 6 6 6 5 5 5 5 4 5 4 4 4 5 4 6 7 7 7 6 6 7 7 7 7 9 9 8 8 9 9 9 9 10 10 8 10 11 10 8 9 7 9 10 10 13 9 11 13 14 15 15 12 17 24 26 26 26 25
6 5 5 5 8 8 7 7 7 9 8 14 16 17 18 18 18 9 7 7 7 6 7 8 8 6 6 7 7 7 6 6 8 12 10 6 5 5 6 6 7 7 8 9 12 11 9 8 6 6 7 9 10 10 11 10 9 7 7 5 5 6 7 9 10 7 7 6 7 9 10 12 9 12 14 14 15 16 14 12 19 23 23 24 26
9 9 10 9 7 8 9 9 10 10 8 13 17 18 18 19 14 7 7 7 7 8 8 8 7 6 6 6 7 6 6 7 9 12 12 12 7 9 8 8 8 8 7 7 12 15 16 15 14 16 17 14 14 16 17 18 11 9 4 5 5 3 6 9 10 7 8 8 7 7 9 13 10 11 14 14 14 16 14 13 10 16 23 25 24
11 11 9 7 7 8 10 11 12 11 10 11 17 18 18 19 14 8 7 7 8 8 7 8 7 6 7 14 10 7 7 7 11 13 14 11 8 8 8 8 10 9 7 6 4 4 10 14 14 10 7 9 11 12 13 13 13 9 3 6 5 3 7 6 10 10 10 8 7 5 9 10 12 12 13 12 14 9 10 10 11 14 20 18 23
9 8 8 8 8 7 9 10 8 10 9 8 15 17 19 19 14 7 8 7 8 9 8 8 7 7 7 10 16 13 10 9 14 14 15 12 8 8 7 9 10 8 7 4 5 5 4 1 1 1 5 6 5 4 6 12 12 10 6 5 4 4 6 7 8 9 11 5 2 8 11 11 12 10 11 13 14 12 3 8 11 10 9 10 13
Wind_Direction
92 87 77 66 61 55 61 61 67 66 73 75 82 88 74 67 66 67 67 67 64 59 68 59 50 43 59 57 61 70 76 70 68 64 60 58 51 43 43 46 47 47 45 42 40 37 35 34 33 31 29 27 26 26 26 23 21 21 21 20 19 20 20 19 16 16 16 14 11 9 8 5 5 4 1 343 333 328 319 320 324 328 331 331 333
101 93 93 83 74 66 62 57 57 46 54 67 57 67 70 67 67 69 68 69 66 48 59 64 50 44 52 62 66 71 76 73 69 66 65 60 56 48 41 44 44 44 43 42 39 37 36 34 34 32 30 28 27 26 25 21 21 20 21 20 18 20 21 18 15 14 15 12 11 10 8 6 3 2 1 358 355 349 336 319 313 314 315 319 324
98 94 88 88 75 74 68 63 61 50 52 67 57 68 68 62 58 66 72 74 71 61 62 69 60 51 56 66 75 78 75 71 71 68 65 58 57 51 37 39 42 40 39 39 38 37 36 34 33 32 31 30 28 28 25 24 21 19 19 18 16 14 15 16 13 12 14 12 10 10 8 7 4 2 0 360 358 356 352 345 327 316 313 312 315
93 94 93 85 79 76 72 70 65 61 60 67 72 69 74 71 62 59 63 73 75 64 56 73 64 61 71 72 72 75 74 72 70 66 64 60 56 50 42 36 36 38 37 35 36 36 35 34 32 31 31 30 29 28 25 24 23 22 22 21 19 17 17 12 9 8 8 9 9 8 8 6 4 2 1 360 358 356 355 353 347 333 322 320 317
85 94 95 89 89 85 78 72 68 67 65 68 74 71 70 69 61 66 64 68 65 60 66 68 72 67 73 72 75 73 72 70 66 63 61 55 53 49 45 38 34 32 33 33 30 32 33 33 31 30 30 29 28 28 27 25 26 26 24 25 23 22 21 18 14 12 9 8 5 4 3 4 3 1 358 357 355 354 355 353 349 346 338 329 322
96 94 95 96 90 83 85 78 75 76 68 62 70 61 71 69 63 67 57 66 68 46 75 76 69 67 65 71 73 71 69 66 61 59 61 57 49 49 43 39 35 31 27 27 28 27 29 30 30 28 27 28 27 27 27 26 26 26 22 23 23 22 23 22 20 19 17 15 13 10 8 5 3 1 359 356 354 351 349 348 348 346 344 340 336
85 100 90 96 98 91 78 75 75 74 73 56 74 67 66 66 50 80 73 69 72 59 71 75 75 67 60 62 65 69 65 65 60 56 56 56 53 47 44 39 34 33 28 26 21 21 25 27 28 26 25 26 26 26 25 25 25 25 23 21 20 20 19 18 18 18 16 13 10 9 9 7 5 2 359 356 354 351 348 346 344 343 343 343 342
85 89 94 85 90 91 86 83 78 79 73 69 68 69 69 68 45 50 90 66 77 65 63 78 72 72 65 67 67 66 67 63 61 58 53 57 50 46 42 38 34 31 30 28 25 18 22 25 25 24 21 23 24 24 23 22 22 22 20 20 19 16 14 10 9 9 11 9 5 3 2 1 360 359 358 355 352 350 348 347 344 341 340 340 339
84 87 95 92 88 88 81 79 76 81 78 70 67 62 75 85 59 45 70 95 83 84 70 74 78 74 72 70 64 68 63 62 60 59 55 54 48 44 41 36 34 32 30 28 25 21 17 22 23 22 19 21 24 23 23 20 17 18 18 16 16 16 14 9 5 2 1 1 3 1 358 357 354 354 353 353 351 347 346 344 344 343 340 337 335
85 90 89 88 89 90 85 75 80 84 83 74 70 64 68 76 79 51 55 82 80 83 84 79 80 78 68 66 63 66 66 64 62 57 54 50 46 44 39 38 36 33 30 29 28 23 22 17 20 20 17 19 23 24 24 21 16 16 15 13 12 11 10 8 7 4 2 2 360 357 354 352 351 351 349 349 348 346 343 340 339 340 340 339 338
91 92 97 96 90 84 82 70 77 84 81 75 67 63 68 65 86 82 65 63 80 68 85 94 84 78 73 62 66 66 68 68 64 61 55 53 50 43 44 35 38 34 31 31 27 28 25 23 21 19 14 19 22 24 25 22 17 16 14 11 10 10 8 7 6 4 1 358 356 354 353 351 350 348 347 346 345 344 343 340 339 336 333 332 334
87 90 93 94 92 83 81 65 66 80 80 74 65 62 72 79 64 85 85 69 51 51 50 90 84 75 76 64 57 67 66 68 64 59 56 47 42 38 37 28 36 30 31 26 30 29 27 24 24 19 20 18 24 24 24 22 17 16 15 11 7 6 5 3 3 1 358 356 353 352 350 348 347 346 345 344 343 342 341 339 336 334 333 332 327
81 90 93 92 86 86 85 70 69 76 78 78 78 75 66 79 87 56 76 78 41 10 12 32 104 75 61 65 56 34 63 65 59 54 51 47 41 45 30 33 29 27 20 24 30 28 28 24 22 22 21 22 19 21 23 21 16 15 14 10 4 3 1 360 359 357 355 352 350 349 348 346 345 344 343 342 341 340 338 337 335 334 332 329 329
81 85 86 92 96 89 83 84 82 84 85 85 75 69 63 59 87 75 39 81 57 7 341 57 37 130 125 90 37 13 44 56 56 43 48 43 44 45 33 35 28 21 15 26 27 26 25 22 23 26 24 26 23 21 20 18 14 13 12 9 3 0 357 356 355 354 353 351 350 348 347 345 344 342 341 339 338 338 337 335 333 332 329 327 326
78 83 93 92 97 96 91 91 81 97 93 72 67 64 59 68 64 112 101 64 88 32 21 30 140 131 132 89 26 47 297 11 17 41 30 47 40 44 34 32 26 24 18 27 26 20 20 19 24 24 25 25 24 23 19 15 11 11 9 6 2 0 357 355 355 354 353 352 351 349 346 345 343 342 340 339 338 336 334 333 331 329 327 325 324
79 89 93 87 93 98 100 85 79 70 90 91 74 66 57 55 72 71 114 81 46 39 26 25 83 124 87 111 172 118 13 341 8 305 349 24 45 41 30 26 18 17 26 29 16 18 17 22 26 24 25 26 25 23 20 15 10 8 4 358 1 1 358 356 355 354 352 351 349 347 345 343 341 340 338 337 335 333 331 330 328 325 324 323 322
83 83 91 95 90 97 95 87 84 75 89 97 94 97 89 84 80 79 60 118 86 97 35 32 49 25 141 113 53 37 195 242 53 280 342 4 12 38 29 17 12 16 18 13 12 17 13 20 24 27 28 27 25 23 22 16 15 2 357 353 358 0 358 355 353 351 349 348 347 344 343 341 340 337 336 334 333 331 329 327 324 323 321 320 319
79 83 88 98 94 88 90 97 97 96 94 100 107 93 69 68 47 87 78 48 117 87 62 27 54 43 49 81 139 165 173 257 83 304 327 84 340 45 55 15 360 14 20 19 13 4 13 11 19 24 25 27 23 24 25 19 14 4 357 352 359 359 356 354 351 349 347 346 344 343 342 340 338 337 335 334 332 329 327 324 323 322 320 318 317
79 81 86 85 88 88 97 100 102 100 97 93 83 82 80 70 59 71 69 81 85 98 100 81 36 33 32 52 60 53 101 121 139 94 10 319 25 354 344 17 346 12 22 22 9 9 2 14 14 21 25 27 26 24 25 16 9 5 358 357 357 356 354 353 350 347 346 345 343 342 340 339 338 337 335 333 331 329 327 326 324 322 320 319 317
89 78 79 87 98 98 103 101 94 85 88 86 98 102 92 72 72 77 71 63 84 114 113 28 116 49 18 53 57 49 47 60 82 138 137 187 309 329 299 338 344 340 37 25 18 10 358 6 16 24 33 27 29 27 24 14 7 356 348 355 354 353 352 350 348 346 345 343 342 340 339 338 337 336 334 332 330 328 326 324 322 322 321 319 318
72 86 83 93 99 108 101 97 95 92 94 96 91 87 87 91 84 76 78 68 67 96 99 85 99 145 130 73 70 73 66 74 55 64 122 103 293 50 320 326 334 286 14 83 45 13 7 360 22 38 36 29 24 22 18 13 4 354 351 354 351 351 350 348 346 345 343 341 340 338 337 336 335 334 333 331 329 327 324 322 321 320 320 319 317
75 79 91 87 96 96 98 100 103 105 100 105 98 85 81 79 78 85 85 82 66 75 91 99 86 67 73 144 96 41 42 31 33 53 40 80 146 305 326 356 349 314 339 360 4 13 355 2 30 43 35 34 21 17 17 13 1 348 351 351 349 348 347 345 344 342 341 340 338 337 336 335 333 332 331 329 328 325 324 323 322 321 320 319 319
102 87 87 97 96 95 102 100 100 106 107 99 93 97 93 92 90 86 81 92 87 89 84 72 82 72 57 71 94 118 160 135 155 64 119 103 40 331 313 277 235 303 305 342 335 341 337 46 83 55 47 32 27 14 14 7 355 349 351 350 348 345 344 343 341 340 338 338 337 336 335 334 332 331 329 327 325 324 324 323 322 321 320 319 318
109 108 106 109 110 99 94 98 104 110 101 102 100 100 99 97 92 93 93 89 93 93 94 91 83 83 70 67 83 87 78 110 152 140 125 172 136 215 234 301 319 227 281 316 306 5 336 1 61 77 41 42 18 16 9 8 352 349 349 349 346 343 342 341 339 338 337 336 335 334 333 332 331 329 328 326 324 324 323 322 322 321 321 320 318
144 132 143 136 124 116 116 122 120 113 114 104 100 99 100 99 100 97 96 95 100 103 101 102 103 102 108 75 91 82 92 99 114 124 100 123 134 122 264 173 217 297 291 10 305 326 279 337 58 43 47 18 9 8 5 358 355 345 349 349 345 340 338 337 336 335 335 335 334 333 332 331 330 328 326 324 324 323 321 320 321 321 320 320 320
157 157 154 136 113 113 122 123 123 117 108 103 102 102 103 104 105 101 97 101 97 96 100 101 92 98 100 98 84 92 92 89 117 117 141 127 119 124 227 317 191 259 291 337 289 30 314 316 55 54 37 22 8 7 4 353 347 343 346 347 340 339 337 335 334 334 335 334 333 331 331 330 328 326 325 323 323 322 320 320 320 319 319 319 319
157 148 140 128 124 125 136 132 128 115 109 106 104 102 102 99 96 101 97 101 102 105 102 105 104 104 98 109 110 92 96 103 105 109 126 144 148 164 121 24 345 261 285 297 320 248 219 290 79 58 54 26 10 8 356 351 341 338 342 341 333 334 334 332 332 333 333 332 331 330 330 328 326 324 324 323 321 319 320 319 318 318 317 317 316
140 138 142 138 139 139 140 134 126 114 108 110 109 108 108 107 104 106 105 108 109 101 105 99 102 108 113 120 101 103 106 105 100 118 117 132 128 129 108 110 114 334 305 326 319 299 212 271 328 114 51 34 16 6 345 341 335 335 340 333 329 325 328 328 331 331 330 328 327 328 327 325 323 322 321 320 318 318 317 315 315 315 314 311 310
142 141 140 140 141 146 142 138 124 116 109 104 106 108 109 108 115 113 107 102 98 105 108 105 110 112 112 119 121 124 120 111 100 110 108 90 97 114 139 155 164 126 306 318 273 204 299 95 303 278 70 25 5 351 340 332 328 332 332 330 323 321 319 327 328 327 326 325 325 326 323 321 321 320 318 316 316 315 314 313 313 312 311 310 309
144 142 138 142 146 154 145 135 124 113 112 112 111 114 113 105 107 99 109 108 102 95 100 112 117 112 113 109 118 117 130 108 114 106 100 107 108 111 111 121 145 147 185 251 285 226 248 312 162 278 358 15 348 333 332 321 321 329 323 319 317 310 318 324 322 322 322 323 323 322 319 318 317 316 315 315 315 314 312 312 311 311 310 310 311
142 143 143 148 153 158 154 132 121 116 115 118 120 117 119 115 108 112 110 110 108 105 109 113 126 118 120 119 123 126 131 115 108 84 78 96 96 110 104 85 76 129 154 161 291 287 136 244 279 357 354 343 334 315 312 307 313 323 318 307 304 308 317 313 315 317 319 320 319 319 317 316 315 314 315 316 315 313 312 311 311 311 311 311 311
151 148 151 157 162 160 154 130 122 120 123 126 130 127 119 117 125 121 126 116 110 114 108 101 116 124 129 130 140 137 133 109 92 90 86 71 112 104 103 102 87 85 110 168 225 268 258 292 300 308 344 327 319 311 308 304 306 314 304 303 300 308 305 300 305 311 314 315 316 317 316 315 314 314 315 315 313 312 311 310 310 310 310 311 311
157 157 161 164 167 161 142 135 133 136 135 136 136 132 123 124 122 126 125 120 120 121 116 108 118 133 136 131 139 140 130 105 107 101 90 100 98 91 92 81 75 55 115 197 243 285 295 179 74 321 325 320 312 310 309 312 313 308 302 294 296 298 300 297 298 302 306 309 313 315 315 315 315 316 315 313 313 312 311 311 311 310 310 311 313
163 161 161 162 162 153 140 137 137 135 135 135 140 131 132 129 130 133 132 130 130 136 128 140 159 156 144 132 135 142 135 124 122 104 125 122 121 106 92 106 70 33 315 147 272 255 292 316 316 306 302 317 307 312 314 319 318 314 309 303 292 290 295 298 298 296 300 307 314 315 316 315 315 315 315 312 310 312 312 312 309 309 310 311 313
163 163 163 161 160 151 141 141 136 133 133 134 140 139 141 143 142 143 144 141 144 151 155 167 169 160 140 137 146 136 134 117 157 147 142 148 139 135 148 135 134 280 259 227 173 283 292 301 324 319 323 316 306 313 314 302 297 300 304 307 307 303 294 291 294 291 296 306 314 315 316 315 315 314 312 312 310 310 309 308 309 310 311 312 314
159 159 164 163 159 155 144 142 139 137 138 141 146 152 151 149 147 144 146 144 145 159 165 168 167 160 153 142 166 155 157 152 190 169 181 164 164 161 159 190 173 216 235 213 257 249 292 300 306 326 313 316 311 302 298 296 299 304 304 300 295 296 293 289 288 294 293 307 314 315 314 315 314 313 312 310 307 308 309 310 310 311 311 312 313
158 158 168 171 161 158 154 151 148 149 146 144 148 134 139 145 147 146 144 140 153 167 173 174 171 161 161 166 183 176 172 175 211 192 185 176 189 172 179 214 204 222 224 237 238 252 273 280 294 298 301 300 299 299 303 315 317 312 297 293 301 302 304 299 292 293 300 308 309 309 313 313 313 313 311 311 310 310 310 309 309 310 310 312 315
160 171 170 173 173 162 149 148 149 150 140 152 156 155 151 148 144 141 141 150 164 172 177 177 169 173 170 180 185 183 185 186 205 204 191 192 191 188 206 226 219 222 237 249 250 256 261 271 282 302 312 314 313 309 313 315 317 318 318 314 306 306 313 316 316 313 307 302 308 307 312 313 312 313 314 313 312 310 308 308 309 309 312 315 314
168 171 174 173 175 156 148 146 153 138 153 162 159 153 148 150 153 146 153 161 172 176 183 178 181 181 181 185 191 190 192 195 192 195 192 198 187 206 208 211 225 213 238 241 249 258 264 279 284 280 297 301 307 310 322 319 300 298 315 326 322 323 316 315 316 317 312 307 309 316 317 317 316 317 315 313 312 310 310 310 311 313 314 312 309
176 179 176 175 166 154 151 150 153 158 167 167 158 152 152 157 148 160 166 173 177 186 185 192 192 197 196 196 198 198 194 198 190 200 184 193 191 200 217 196 213 210 224 238 256 263 270 275 283 293 277 284 299 306 305 312 314 319 334 325 315 320 322 320 320 321 315 312 319 321 321 315 311 311 312 310 308 309 310 312 312 311 311 309 305
181 183 177 167 155 150 149 156 159 168 174 177 171 164 159 165 170 173 178 181 182 186 196 206 213 209 210 204 205 206 203 205 205 200 198 192 182 202 220 184 205 205 219 235 241 253 263 271 284 278 290 304 310 320 321 328 333 327 325 322 312 315 317 314 317 319 308 315 315 320 318 317 311 311 309 303 302 309 308 309 308 306 304 304 308
177 176 173 170 164 158 159 163 169 175 183 182 177 173 171 170 176 181 182 187 185 189 197 212 224 220 217 215 218 215 217 216 219 220 220 221 215 194 190 193 196 200 210 221 242 244 260 267 262 283 284 298 315 311 309 315 320 318 315 319 317 320 319 312 305 307 323 318 326 320 318 315 308 305 302 296 297 304 301 304 299 303 307 312 313
177 174 174 174 176 170 169 169 177 186 187 186 183 183 186 183 177 182 187 189 187 192 204 210 220 220 222 221 220 232 230 226 227 226 228 230 239 245 234 214 198 186 200 228 234 231 248 251 259 258 292 305 306 308 310 317 314 313 316 319 319 318 317 320 316 316 343 347 325 318 308 309 304 303 305 307 309 310 306 298 308 315 315 311 309
174 171 188 189 176 171 169 174 189 193 195 191 190 193 195 195 188 188 186 186 188 201 207 216 222 218 223 225 229 217 229 228 222 249 252 252 250 246 245 248 250 245 228 206 223 244 251 269 285 290 300 295 302 318 317 311 310 317 319 318 313 312 312 309 307 305 317 339 320 308 302 307 315 314 315 314 313 311 311 313 315 313 310 311 314
163 182 192 180 186 178 177 184 197 199 203 198 197 199 202 202 199 184 187 184 191 206 210 216 218 221 219 226 232 226 218 227 223 204 209 246 263 261 259 257 254 249 250 257 261 265 276 277 283 289 285 298 308 310 303 307 323 317 318 312 310 307 303 300 301 306 310 324 306 305 307 312 326 319 312 313 312 311 311 311 310 310 312 314 313
182 187 186 188 183 185 188 195 201 204 205 202 202 204 206 207 205 186 179 187 199 205 213 216 221 220 218 217 221 233 219 214 214 206 204 213 225 256 275 282 276 277 271 267 267 269 270 275 276 276 287 313 298 295 307 329 322 313 309 305 307 303 305 299 302 300 303 313 319 321 304 306 324 321 312 309 309 306 304 305 310 313 313 313 314
185 188 188 187 193 189 193 196 204 210 212 206 206 207 209 210 209 192 169 190 198 210 215 222 222 221 219 216 215 221 213 208 206 207 211 221 220 235 248 255 259 253 252 250 251 247 248 257 264 278 287 287 281 294 319 317 308 299 298 295 307 316 305 299 291 287 300 320 326 319 293 303 321 316 307 310 312 308 306 309 311 311 312 313 315
189 186 196 195 194 192 193 197 206 220 218 208 208 209 209 210 208 198 173 193 198 207 218 222 226 220 216 212 213 216 210 211 217 230 227 202 206 222 235 245 251 250 242 238 239 239 245 241 251 275 277 275 284 303 309 308 307 301 293 303 314 304 307 305 299 312 299 309 311 300 293 298 318 310 309 311 310 307 309 306 309 313 315 318 319
186 193 198 197 189 190 197 202 209 222 219 211 209 210 210 209 206 199 182 192 205 210 221 223 226 223 218 217 216 214 215 220 226 234 236 231 212 219 228 237 242 242 233 224 237 260 274 268 272 287 290 291 302 305 305 307 304 302 320 312 292 313 310 308 304 311 307 315 303 284 299 299 314 316 311 312 311 307 306 307 307 315 322 320 322
195 201 193 189 195 199 203 211 211 214 221 210 211 212 210 208 206 198 191 195 210 216 224 228 221 225 223 229 224 217 222 226 230 235 234 232 236 236 237 244 250 243 233 226 217 231 251 264 279 289 303 306 306 311 311 306 301 300 294 275 275 298 287 286 295 305 306 305 284 300 304 293 311 319 314 309 303 289 297 300 314 319 316 319 320
204 190 187 196 201 204 212 217 212 216 227 213 213 215 212 210 208 193 191 197 212 222 221 227 225 222 232 233 234 231 225 231 234 235 233 228 229 232 236 249 248 236 231 214 216 233 226 176 239 325 296 309 316 303 288 295 297 297 289 273 276 272 283 288 292 305 309 293 255 331 311 308 319 318 329 321 314 303 264 307 312 305 314 314 314